FLOCK 4Y-7 (55032 NORAD) Tracking and Keplerian Element Data

This shows tracking and keplerian element data for the satellite.

Feedback or suggestion? Click here.




ElementValue
Catalog55032
NameFLOCK 4Y-7
Epoch Orbit1245
Epoch Day84.89701236
Epoch Year2023
RAAN145.7348
Inclination97.4867
Eccentricity0.0010978
Argument of Perigee289.0001
Mean Anonmoly71.0042
Mean Motion15.16113552
Decay Rate0.00012935
L11 55032U 23001Z 23084.89701236 .00012935 00000+0 67312-3 0 9995
L22 55032 97.4867 145.7348 0010978 289.0001 71.0042 15.16113552 12451



Live tracking and technical data element details for FLOCK 4Y-7 (NORAD 55032). FLOCK 4Y-7 can be tracked NOW for your location showing map with azimuth and elevation plus other details from your city location.







IsCatalogInMostPopularTable: catalog: 55032, numindb: 9
Update: records affected: 1



GetName: 55032 FLOCK 4Y-7

Hit Count: updated at: Mon, 27 Mar 2023 07:45:00 GMT